[[{"header":{"parameterUnit":"m.s-1","parameterCategory":1,"la1":30.2991,"la2":30.254,"lo1":-89.0895,"lo2":-89.0444,"dy":0.0017,"dx":0.0017,"nx":28,"ny":28,"refTime":"2026-01-30T03:00:00:Z","depth":0,"parameterNumber":2,"parameterNumberName":"U-component_of_WINDS"},"data":[0,0,0,0,0,0,0,0,0,0,0,0,0,0,0,0,0,0,0,0,0,0,0,0,0,0,0,0,0,0,0,0,0,0,0,0,0,0,0,0,0,0,0,0,0,0,0,0,0,0,0,0,0,0,0,0,0,0,0.086,0.086,0,0.0872,0.0872,0.0872,0.0857,0.0857,0.0856,0.0856,0.0867,0.0868,0.0869,0,0,0,0,0,0,0,0,0,0,0,0,0,0.0826,0.0827,0.086,0.086,0.0861,0.0872,0.0872,0.0873,0.0857,0.0857,0.0856,0.0855,0.0867,0.0868,0.0869,0,0,0,0,0,0,0,0,0,0,0,0,0,0.084,0.0827,0.086,0.0854,0.0854,0.0872,0.0872,0.0873,0.0857,0.0857,0.0856,0.0855,0.0867,0.0868,0.0869,0.0894,0,0,0.0873,0.0874,0,0,0,0,0,0,0,0,0.0839,0.0841,0.0855,0.0855,0.0854,0.0862,0.0865,0.088,0.0858,0.0856,0.0855,0.0855,0.0866,0.0868,0.0872,0.0894,0.0895,0.0873,0.0874,0.0875,0.0875,0,0,0,0,0,0,0,0.0838,0.084,0.0865,0.0855,0.0855,0.0852,0.0853,0.0867,0.0866,0.0856,0.0855,0.0857,0.0866,0.0871,0.0872,0.0895,0.0873,0.0874,0.0875,0.0876,0.0942,0.0943,0,0,0,0,0,0,0.0838,0.084,0.0865,0.0865,0.0845,0.0853,0.0854,0.0861,0.0866,0.0866,0.0857,0.0856,0.0869,0.087,0.0872,0.0904,0.0875,0.0876,0.0876,0.0941,0.0942,0.0943,0,0,0,0,0,0,0.0837,0.084,0.0864,0.0852,0.0855,0.0855,0.0862,0.0861,0.0866,0.0867,0.0866,0.0862,0.0868,0.087,0.0889,0.0904,0.0876,0.0877,0.094,0.0941,0.0943,0.0966,0,0,0,0,0,0,0.0836,0.084,0.0849,0.0853,0.0856,0.0881,0.0863,0.0862,0.0868,0.0866,0.0871,0.0871,0.0868,0.0888,0.0891,0.0905,0.0878,0.0939,0.0941,0.0942,0.0964,0.0968,0.0972,0,0,0,0,0,0.0835,0.0854,0.0849,0.0852,0.0867,0.0881,0.0883,0.0879,0.0869,0.0879,0.088,0.0871,0.0902,0.089,0.0893,0.0908,0.0938,0.094,0.0942,0.0962,0.0967,0.0971,0,0,0,0,0,0,0.0851,0.0854,0.0849,0.087,0.0876,0.0879,0.089,0.0884,0.0893,0.0891,0.0885,0.0887,0.0908,0.0909,0.0896,0.0934,0.0918,0.0921,0.0932,0.0937,0.0941,0.0941,0.0879,0,0,0,0,0,0.0857,0.0868,0.087,0.0888,0.0892,0.0891,0.0897,0.0894,0.0899,0.0902,0.0904,0.091,0.0922,0.0929,0.0939,0.0964,0.0966,0.0976,0.098,0.0983,0.0986,0.1003,0.1008,0.0951,0.0951,0.0951,0,0,0.0869,0.0872,0.088,0.0892,0.0896,0.0909,0.0893,0.0906,0.0917,0.0904,0.0923,0.0925,0.0931,0.0954,0.0964,0.0956,0.1003,0.0986,0.0988,0.099,0.1006,0.1011,0.1016,0.0952,0.0952,0.0952,0,0,0.0898,0.0901,0.0918,0.0923,0.093,0.093,0.0934,0.0939,0.094,0.0959,0.095,0.0962,0.0981,0.0987,0.0993,0.1028,0.1021,0.1031,0.1052,0.1068,0.1073,0.1077,0.1092,0.1097,0.1034,0.1034,0.1034,0,0.0913,0.0932,0.0927,0.0943,0.0949,0.0939,0.0957,0.0962,0.0972,0.0978,0.0968,0.0994,0.0998,0.1024,0.1033,0.1036,0.1043,0.1031,0.1072,0.1076,0.108,0.1095,0.11,0.1036,0.1035,0.1035,0.1035,0,0.0951,0.0964,0.0977,0.0989,0.0996,0.1013,0.1012,0.1021,0.1017,0.1018,0.1039,0.1043,0.1056,0.1061,0.1057,0.1087,0.1083,0.1073,0.1057,0.1087,0.1101,0.1106,0.1038,0.1037,0.1037,0.1036,0,0,0.099,0.1,0.1005,0.1012,0.102,0.103,0.1047,0.106,0.1069,0.1077,0.1093,0.111,0.1102,0.1109,0.1105,0.1119,0.1151,0.1108,0.1109,0.1118,0.1188,0.1197,0.1203,0.1146,0.1147,0.1148,0.1188,0,0.1022,0.1051,0.1049,0.1078,0.1092,0.1084,0.1099,0.1106,0.1108,0.1121,0.1123,0.1137,0.1123,0.1128,0.1141,0.1144,0.1165,0.1141,0.1162,0.1163,0.1163,0.121,0.1219,0.1257,0.1193,0.1194,0.1195,0,0.1062,0.1073,0.1104,0.1113,0.1118,0.1132,0.1146,0.1157,0.1166,0.1167,0.1176,0.1171,0.119,0.1173,0.12,0.1184,0.1193,0.1196,0.1197,0.1201,0.1182,0.1217,0.1269,0.1276,0.1203,0.1202,0.1202,0,0.1091,0.1113,0.1135,0.114,0.1151,0.1161,0.1166,0.1174,0.1183,0.1195,0.1201,0.1214,0.1222,0.1233,0.1233,0.122,0.1262,0.1244,0.1265,0.1266,0.1276,0.1275,0.1332,0.1277,0.1277,0.1277,0.1277,0,0.1128,0.1148,0.1149,0.1162,0.1185,0.1183,0.1205,0.1209,0.1217,0.1232,0.1225,0.124,0.1238,0.1253,0.1253,0.1278,0.128,0.1283,0.1283,0.1285,0.1285,0.1292,0.129,0.1279,0.1278,0.1278,0.1278,0,0.1164,0.1166,0.119,0.1198,0.1201,0.1218,0.1225,0.1239,0.1241,0.1261,0.1266,0.1269,0.1287,0.1288,0.1307,0.1308,0.1339,0.1334,0.1336,0.1336,0.1358,0.1357,0.1423,0.1433,0.1369,0.137,0.137,0,0.1189,0.1204,0.1215,0.1225,0.1231,0.1247,0.1257,0.1256,0.1266,0.128,0.1293,0.131,0.1324,0.1354,0.1358,0.1375,0.1372,0.1394,0.1375,0.1377,0.1376,0.1377,0.138,0.1399,0.1399,0.14,0.14,0,0.1233,0.1234,0.1248,0.1264,0.1276,0.1288,0.1299,0.1308,0.1308,0.1321,0.134,0.1351,0.1373,0.1391,0.1408,0.1414,0.1408,0.1407,0.1413,0.1416,0.1418,0.142,0.1349,0.1405,0.1405,0.1405,0.1404,0.1404,0.1266,0.128,0.1291,0.1309,0.1317,0.1329,0.1343,0.1348,0.1364,0.1382,0.138,0.1402,0.1414,0.1436,0.1443,0.1461,0.1454,0.1462,0.1464,0.1467,0.1471,0.1413,0.1463,0.1463,0.1463,0.1463,0.1463,0,0.1312,0.1319,0.1335,0.1352,0.1367,0.136,0.1373,0.1386,0.1405,0.1416,0.1431,0.1455,0.1473,0.148,0.1499,0.1512,0.1511,0.1517,0.1518,0.152,0.1475,0.1469,0.1519,0.1519,0.1519,0.1519,0.1519,0.1519,0.1338,0.1363,0.1366,0.1396,0.1404,0.1425,0.1434,0.1445,0.1455,0.1481,0.1497,0.1502,0.1512,0.1532,0.155,0.1552,0.156,0.1569,0.157,0.1528,0.1522,0.1517,0.1512,0.157,0.157,0.1614,0.1614,0.1615]},{"header":{"parameterUnit":"m.s-1","parameterCategory":1,"la1":30.2991,"la2":30.254,"lo1":-89.0895,"lo2":-89.0444,"dy":0.0017,"dx":0.0017,"nx":28,"ny":28,"refTime":"2026-01-30T03:00:00:Z","depth":0,"parameterNumber":3,"parameterNumberName":"V-component_of_WINDS"},"data":[0,0,0,0,0,0,0,0,0,0,0,0,0,0,0,0,0,0,0,0,0,0,0,0,0,0,0,0,0,0,0,0,0,0,0,0,0,0,0,0,0,0,0,0,0,0,0,0,0,0,0,0,0,0,0,0,0,0,-0.2555,-0.2555,0,-0.2573,-0.2573,-0.2573,-0.2612,-0.2613,-0.2614,-0.2614,-0.2631,-0.263,-0.263,0,0,0,0,0,0,0,0,0,0,0,0,0,-0.2555,-0.2554,-0.2555,-0.2555,-0.2556,-0.2573,-0.2573,-0.2573,-0.2612,-0.2613,-0.2614,-0.2615,-0.2631,-0.263,-0.263,0,0,0,0,0,0,0,0,0,0,0,0,0,-0.2562,-0.2554,-0.2555,-0.2577,-0.2579,-0.2572,-0.2573,-0.2573,-0.2612,-0.2613,-0.2614,-0.2615,-0.2631,-0.2631,-0.263,-0.2603,0,0,-0.2629,-0.2628,0,0,0,0,0,0,0,0,-0.2561,-0.2562,-0.2574,-0.2576,-0.2578,-0.2591,-0.2579,-0.2583,-0.2611,-0.2599,-0.2614,-0.2616,-0.2617,-0.2617,-0.2618,-0.2604,-0.2604,-0.2629,-0.2628,-0.2628,-0.2628,0,0,0,0,0,0,0,-0.2561,-0.2561,-0.2562,-0.2574,-0.2576,-0.2586,-0.2588,-0.258,-0.2601,-0.26,-0.2603,-0.2605,-0.2618,-0.2618,-0.2619,-0.2605,-0.2629,-0.2628,-0.2628,-0.2628,-0.2569,-0.2568,0,0,0,0,0,0,-0.2557,-0.256,-0.2562,-0.2563,-0.2572,-0.2585,-0.2587,-0.2586,-0.2601,-0.2605,-0.2604,-0.2607,-0.2619,-0.2619,-0.2619,-0.2588,-0.2628,-0.2628,-0.2627,-0.257,-0.2569,-0.2567,0,0,0,0,0,0,-0.2557,-0.2557,-0.2561,-0.2562,-0.2564,-0.2583,-0.2581,-0.2586,-0.2586,-0.2604,-0.2608,-0.26,-0.2619,-0.262,-0.2607,-0.259,-0.2627,-0.2627,-0.2572,-0.257,-0.2568,-0.2526,0,0,0,0,0,0,-0.2557,-0.2557,-0.2547,-0.2562,-0.2563,-0.2548,-0.258,-0.2585,-0.2585,-0.2589,-0.2601,-0.2605,-0.262,-0.2607,-0.2606,-0.259,-0.2627,-0.2573,-0.2571,-0.2569,-0.2529,-0.2523,-0.2518,0,0,0,0,0,-0.2557,-0.2534,-0.2546,-0.2546,-0.2551,-0.2547,-0.2548,-0.2567,-0.2584,-0.2574,-0.2585,-0.2604,-0.2592,-0.2606,-0.2605,-0.2588,-0.2575,-0.2572,-0.2569,-0.2532,-0.2525,-0.2518,0,0,0,0,0,0,-0.2516,-0.2536,-0.255,-0.2532,-0.2537,-0.2554,-0.2542,-0.2559,-0.2559,-0.2563,-0.2586,-0.2589,-0.2572,-0.2579,-0.2594,-0.2562,-0.2586,-0.2583,-0.2558,-0.2552,-0.2546,-0.2544,-0.2626,0,0,0,0,0,-0.2505,-0.25,-0.2518,-0.25,-0.2503,-0.2522,-0.252,-0.2535,-0.2541,-0.2544,-0.2554,-0.256,-0.2557,-0.2555,-0.2553,-0.2531,-0.2534,-0.2519,-0.2513,-0.2508,-0.2505,-0.2493,-0.2487,-0.2558,-0.2558,-0.2558,0,0,-0.2482,-0.2493,-0.2488,-0.2492,-0.2499,-0.2493,-0.2523,-0.2516,-0.2511,-0.2543,-0.2531,-0.2539,-0.2546,-0.2528,-0.2521,-0.2533,-0.2486,-0.2505,-0.2501,-0.25,-0.249,-0.2483,-0.2477,-0.2556,-0.2556,-0.2557,0,0,-0.2437,-0.2445,-0.2431,-0.2436,-0.2445,-0.2458,-0.2455,-0.2469,-0.2475,-0.2464,-0.2487,-0.2482,-0.2477,-0.2481,-0.2483,-0.244,-0.2457,-0.2439,-0.2409,-0.2397,-0.2392,-0.2387,-0.2371,-0.2365,-0.2436,-0.2435,-0.2435,0,-0.2407,-0.24,-0.2421,-0.2412,-0.2413,-0.2442,-0.2427,-0.2432,-0.2439,-0.2439,-0.2453,-0.2447,-0.2455,-0.2438,-0.2427,-0.2428,-0.2424,-0.2437,-0.2391,-0.2386,-0.2382,-0.2367,-0.2361,-0.2433,-0.2433,-0.2434,-0.2434,0,-0.2362,-0.2357,-0.2344,-0.2351,-0.2351,-0.2339,-0.2359,-0.2356,-0.237,-0.2381,-0.2369,-0.2379,-0.238,-0.2377,-0.2391,-0.2362,-0.2369,-0.2387,-0.2411,-0.2372,-0.2359,-0.2353,-0.243,-0.2431,-0.2431,-0.2432,0,0,-0.2292,-0.2311,-0.2306,-0.231,-0.2322,-0.2318,-0.2307,-0.2309,-0.2306,-0.231,-0.2302,-0.2297,-0.2313,-0.2315,-0.2329,-0.2319,-0.2284,-0.2338,-0.2338,-0.2327,-0.2252,-0.2239,-0.2232,-0.2296,-0.2295,-0.2294,-0.2251,0,-0.2249,-0.2233,-0.2252,-0.2231,-0.2226,-0.2253,-0.2244,-0.225,-0.226,-0.2257,-0.2268,-0.2264,-0.2286,-0.2287,-0.2279,-0.229,-0.2269,-0.2293,-0.2287,-0.2287,-0.2284,-0.2225,-0.2211,-0.217,-0.2246,-0.2245,-0.2245,0,-0.2197,-0.22,-0.2179,-0.2192,-0.2191,-0.2182,-0.2185,-0.2182,-0.2189,-0.2197,-0.2199,-0.2217,-0.2207,-0.2231,-0.2218,-0.2234,-0.2233,-0.2238,-0.2237,-0.2237,-0.2263,-0.2222,-0.2158,-0.2151,-0.2237,-0.2237,-0.2238,0,-0.2147,-0.2145,-0.2133,-0.2135,-0.215,-0.2144,-0.215,-0.2159,-0.2158,-0.216,-0.216,-0.2161,-0.2161,-0.2162,-0.2179,-0.2195,-0.2163,-0.2189,-0.2169,-0.2169,-0.2161,-0.2161,-0.2094,-0.2161,-0.2161,-0.2161,-0.2161,0,-0.2098,-0.2083,-0.211,-0.2102,-0.2087,-0.2109,-0.2093,-0.2102,-0.211,-0.2104,-0.2127,-0.2121,-0.2144,-0.214,-0.2154,-0.214,-0.214,-0.2146,-0.215,-0.2144,-0.2143,-0.2143,-0.2146,-0.2159,-0.216,-0.216,-0.216,0,-0.2039,-0.2057,-0.2044,-0.206,-0.2064,-0.2052,-0.2065,-0.2058,-0.207,-0.2062,-0.2061,-0.208,-0.2076,-0.2094,-0.2093,-0.2102,-0.2082,-0.2091,-0.208,-0.2082,-0.2061,-0.2063,-0.1992,-0.1983,-0.2055,-0.2055,-0.2054,0,-0.2006,-0.1996,-0.2011,-0.2009,-0.2014,-0.201,-0.2009,-0.2031,-0.2029,-0.2037,-0.2029,-0.2028,-0.2028,-0.2021,-0.2034,-0.2033,-0.2042,-0.2017,-0.2042,-0.2036,-0.2041,-0.2041,-0.204,-0.2012,-0.2011,-0.201,-0.201,0,-0.1945,-0.1954,-0.1954,-0.1955,-0.1955,-0.1957,-0.1961,-0.1958,-0.1981,-0.1978,-0.1975,-0.1975,-0.1975,-0.1973,-0.1975,-0.1981,-0.1999,-0.2002,-0.1997,-0.1991,-0.1984,-0.1987,-0.2065,-0.2003,-0.2004,-0.2004,-0.2005,-0.2005,-0.1898,-0.189,-0.19,-0.1898,-0.1903,-0.1906,-0.19,-0.1912,-0.191,-0.1911,-0.1924,-0.1918,-0.1926,-0.1931,-0.1935,-0.1931,-0.1943,-0.1936,-0.1934,-0.1932,-0.1928,-0.1985,-0.1932,-0.1932,-0.1932,-0.1932,-0.1932,0,-0.1838,-0.1846,-0.1844,-0.1849,-0.1847,-0.1865,-0.187,-0.1867,-0.1862,-0.1868,-0.1868,-0.1864,-0.1862,-0.1875,-0.1875,-0.1869,-0.1877,-0.1868,-0.1869,-0.187,-0.1918,-0.1922,-0.1862,-0.1862,-0.1862,-0.1862,-0.1862,-0.1862,-0.1807,-0.1794,-0.1805,-0.1795,-0.1802,-0.1797,-0.1799,-0.1802,-0.1807,-0.1802,-0.18,-0.1809,-0.1818,-0.1819,-0.1818,-0.1822,-0.182,-0.1808,-0.1815,-0.186,-0.1866,-0.1873,-0.1877,-0.1808,-0.1808,-0.1767,-0.1766,-0.1766]}]]